TimeEST,TemperatureF,Dew PointF,Humidity,Sea Level PressureIn,VisibilityMPH,Wind Direction,Wind SpeedMPH,Gust SpeedMPH,PrecipitationIn,Events,Conditions,WindDirDegrees,DateUTC
12:56 AM,33.1,30.0,89,30.20,10.0,Calm,Calm,-,N/A,,Clear,0,2013-01-20 05:56:00
1:56 AM,34.0,30.9,89,30.19,10.0,WSW,4.6,-,N/A,,Clear,240,2013-01-20 06:56:00
2:56 AM,33.1,30.9,92,30.18,10.0,Calm,Calm,-,N/A,,Clear,0,2013-01-20 07:56:00
3:56 AM,34.0,30.0,85,30.17,10.0,Calm,Calm,-,N/A,,Clear,0,2013-01-20 08:56:00
4:56 AM,36.0,30.0,79,30.16,10.0,SSW,5.8,-,N/A,,Clear,210,2013-01-20 09:56:00
5:56 AM,34.0,28.9,82,30.15,10.0,SSW,6.9,-,N/A,,Clear,210,2013-01-20 10:56:00
6:56 AM,37.0,28.9,73,30.15,10.0,Calm,Calm,-,N/A,,Clear,0,2013-01-20 11:56:00
7:56 AM,34.0,28.9,82,30.17,10.0,WSW,6.9,-,N/A,,Clear,240,2013-01-20 12:56:00
8:56 AM,42.1,33.1,70,30.17,10.0,WSW,5.8,-,N/A,,Clear,250,2013-01-20 13:56:00
9:56 AM,48.9,33.1,54,30.17,10.0,West,8.1,-,N/A,,Clear,260,2013-01-20 14:56:00
10:56 AM,54.0,32.0,43,30.17,10.0,West,11.5,-,N/A,,Clear,260,2013-01-20 15:56:00
11:56 AM,57.0,32.0,39,30.14,10.0,WSW,9.2,-,N/A,,Clear,250,2013-01-20 16:56:00
12:56 PM,60.1,34.0,38,30.10,10.0,WSW,9.2,-,N/A,,Clear,240,2013-01-20 17:56:00
1:56 PM,62.1,35.1,37,30.07,10.0,West,12.7,-,N/A,,Clear,260,2013-01-20 18:56:00
2:56 PM,63.0,35.1,35,30.06,10.0,WSW,10.4,-,N/A,,Clear,240,2013-01-20 19:56:00
3:56 PM,64.0,36.0,35,30.05,10.0,SW,10.4,-,N/A,,Clear,220,2013-01-20 20:56:00
4:56 PM,63.0,28.9,28,30.04,10.0,West,11.5,-,N/A,,Clear,260,2013-01-20 21:56:00
5:56 PM,59.0,28.9,32,30.06,10.0,West,6.9,-,N/A,,Clear,270,2013-01-20 22:56:00
6:56 PM,54.0,30.0,40,30.06,10.0,West,6.9,-,N/A,,Clear,270,2013-01-20 23:56:00
7:56 PM,51.1,30.9,46,30.07,10.0,West,4.6,-,N/A,,Clear,260,2013-01-21 00:56:00
8:56 PM,46.0,30.9,56,30.09,10.0,Calm,Calm,-,N/A,,Clear,0,2013-01-21 01:56:00
9:56 PM,48.0,30.9,52,30.09,10.0,WSW,3.5,-,N/A,,Clear,250,2013-01-21 02:56:00
10:56 PM,41.0,33.1,73,30.10,10.0,Calm,Calm,-,N/A,,Clear,0,2013-01-21 03:56:00
11:56 PM,35.1,30.0,82,30.09,10.0,Calm,Calm,-,N/A,,Clear,0,2013-01-21 04:56:00